Total_Precipitation_Accumulation
1.64 1.64 2.58 3.80 4.49 3.63 3.19 2.99 2.53 2.22 1.68 1.33 1.09 1.12 1.56 1.98 2.23 2.59 2.63 2.67 1.76 1.54 1.80 2.43 3.16 3.03 2.79 2.73 2.78 2.71 2.53 2.26 2.09 2.08 2.09 2.10 2.05 2.06 2.06 2.09 2.05 2.11 2.04 1.92 2.09 2.37 2.38 2.33 2.32
1.28 2.04 3.21 4.36 4.00 3.12 3.18 2.89 2.48 2.04 1.48 1.09 0.88 0.87 0.99 0.96 0.88 1.45 2.68 2.85 1.71 1.38 1.56 1.89 2.81 2.80 2.76 2.75 2.56 2.51 2.27 2.00 1.88 1.87 1.88 1.90 2.02 2.22 2.31 2.26 2.21 2.21 1.99 1.81 1.85 2.24 2.39 2.35 2.22
1.75 2.78 3.83 4.09 3.13 2.90 3.19 2.86 2.29 1.52 1.11 0.97 0.90 0.80 0.90 1.16 1.20 1.78 2.58 2.13 1.57 1.39 1.62 2.30 2.91 2.69 2.63 2.53 2.35 2.34 2.21 1.98 1.87 1.85 1.84 1.93 2.20 2.34 2.33 2.36 2.30 2.20 2.02 1.93 2.02 2.38 2.31 2.27 2.16
2.27 3.31 3.70 3.35 2.73 2.44 2.47 2.40 1.99 1.48 1.12 0.79 0.79 0.91 0.89 1.28 1.47 1.78 1.94 1.56 1.42 1.43 1.63 2.29 2.66 2.39 2.28 2.25 2.20 2.11 2.16 2.18 1.97 1.80 1.86 2.08 2.47 2.50 2.50 2.53 2.29 2.21 2.10 2.12 2.22 2.40 2.38 2.30 2.24
2.69 3.36 3.39 3.11 2.73 2.45 2.06 1.88 1.78 1.65 1.30 0.93 0.88 1.08 1.37 1.88 1.76 1.62 1.60 1.41 1.28 1.25 1.37 1.85 2.35 2.16 2.07 2.06 2.05 1.96 2.05 2.17 2.06 1.83 1.96 2.23 2.58 2.63 2.55 2.42 2.23 2.24 2.21 2.26 2.47 2.49 2.52 2.41 2.25
3.16 3.10 3.21 3.15 2.93 2.59 2.18 1.64 1.49 1.51 1.22 0.99 0.98 1.16 1.80 2.26 2.08 1.92 1.61 1.61 1.43 1.27 1.21 1.41 1.91 2.02 1.89 1.91 2.05 1.97 1.96 2.06 2.01 1.93 1.97 2.14 2.53 2.50 2.48 2.39 2.24 2.17 2.24 2.48 2.80 2.72 2.58 2.38 2.28
3.07 2.95 2.95 2.60 2.68 2.93 2.29 1.42 1.47 1.48 1.37 1.15 0.90 1.17 1.72 2.05 1.89 1.78 1.58 1.57 1.61 1.54 1.40 1.28 1.35 1.55 1.71 1.84 1.99 1.98 1.94 1.91 1.84 1.94 1.98 2.27 2.69 2.43 2.28 2.28 2.23 2.20 2.29 2.42 2.62 2.53 2.41 2.37 2.37
2.48 2.57 2.52 2.50 2.70 2.88 2.07 1.27 1.16 1.35 1.33 0.92 0.96 1.31 1.57 1.56 1.48 1.47 1.53 1.68 1.67 1.62 1.48 1.27 1.17 1.21 1.39 1.48 1.68 1.93 1.98 1.90 1.78 1.86 2.03 2.31 2.73 2.47 2.25 2.14 2.31 2.42 2.40 2.51 2.67 2.53 2.37 2.38 2.29
2.07 2.57 2.86 2.88 2.78 2.45 1.66 1.33 1.09 0.98 0.99 0.90 0.91 1.02 1.13 1.02 1.12 1.28 1.29 1.35 1.48 1.41 1.30 1.19 1.14 1.18 1.30 1.38 1.47 1.82 1.87 1.77 1.60 1.60 1.89 2.03 2.27 2.21 2.20 2.28 2.61 2.61 2.62 2.70 2.80 2.76 2.54 2.26 2.16
2.12 2.57 2.61 2.10 1.71 1.63 1.40 1.25 1.12 1.20 1.26 1.07 1.03 1.05 1.08 1.07 1.12 1.15 1.14 1.15 1.19 1.13 1.01 0.97 0.96 1.04 1.16 1.22 1.60 1.90 1.70 1.63 1.42 1.46 1.54 1.71 2.07 2.35 2.08 2.31 2.77 2.71 2.65 2.60 2.73 2.74 2.35 1.84 1.55
1.74 2.14 1.81 1.55 1.27 1.08 1.14 1.13 0.91 1.10 1.33 1.12 1.07 1.05 1.09 1.19 1.16 1.16 1.12 1.00 0.95 0.88 0.81 0.76 0.70 0.70 0.79 1.03 1.39 1.71 1.86 1.88 1.87 1.70 1.59 1.69 1.60 1.71 1.63 1.62 1.80 1.88 1.93 1.87 1.99 2.12 1.83 1.54 1.47
1.65 1.61 1.44 1.43 1.05 1.02 1.02 0.96 0.91 0.97 1.09 0.98 1.03 0.94 0.95 1.06 1.07 1.05 1.10 1.00 0.88 0.83 0.79 0.71 0.66 0.62 0.64 0.73 0.93 1.17 1.35 1.48 1.57 1.49 1.35 1.50 1.47 1.47 1.50 1.45 1.37 1.34 1.43 1.55 1.55 1.69 1.68 1.46 1.36
1.72 1.68 1.36 1.12 1.00 0.94 0.87 0.85 0.86 0.97 0.92 0.83 0.93 1.00 1.03 1.03 1.04 1.09 1.16 1.15 0.99 0.95 0.93 0.83 0.71 0.67 0.67 0.73 0.79 0.88 1.06 1.20 1.24 1.33 1.28 1.30 1.44 1.47 1.42 1.30 1.27 1.16 1.23 1.37 1.48 1.50 1.55 1.57 1.50
1.52 1.50 1.52 1.33 1.11 1.02 1.00 0.88 0.78 0.97 0.95 0.90 1.00 1.09 1.05 1.07 0.98 0.97 1.03 1.13 1.13 1.07 1.00 0.95 0.83 0.80 0.76 0.75 0.77 0.85 0.94 0.99 1.03 1.05 1.06 1.17 1.35 1.38 1.38 1.35 1.38 1.31 1.31 1.41 1.42 1.35 1.48 1.66 1.59
1.38 1.64 1.67 1.49 1.21 1.09 1.12 1.25 0.97 0.93 0.99 1.03 1.14 1.09 1.00 1.02 0.96 0.92 0.91 0.97 1.04 1.03 0.96 0.95 0.94 0.94 0.92 0.89 0.82 0.82 0.92 1.01 1.01 0.99 0.92 0.95 1.10 1.20 1.28 1.30 1.28 1.32 1.44 1.48 1.53 1.36 1.40 1.46 1.46
1.74 2.13 2.29 1.66 1.37 1.17 1.36 1.58 1.13 1.05 1.10 1.06 1.08 1.04 0.97 0.93 0.89 0.87 0.89 0.87 0.87 0.83 0.83 0.91 0.90 0.93 0.96 0.97 0.96 0.97 0.99 1.09 1.04 1.02 0.95 0.91 0.97 1.10 1.27 1.29 1.25 1.25 1.43 1.58 1.67 1.57 1.56 1.54 1.52
2.03 2.13 2.03 1.67 1.33 1.23 1.32 1.33 1.08 1.07 1.11 0.95 0.94 0.91 0.86 0.79 0.77 0.73 0.77 0.80 0.80 0.75 0.77 0.79 0.83 0.82 0.89 0.95 0.98 1.09 1.14 1.16 1.12 1.10 1.02 1.00 1.06 1.18 1.37 1.49 1.48 1.43 1.47 1.53 1.53 1.63 1.66 1.66 1.67
1.69 1.58 1.48 1.42 1.17 1.11 1.15 0.99 0.88 0.94 0.95 0.86 0.75 0.69 0.68 0.68 0.64 0.62 0.65 0.70 0.72 0.75 0.74 0.73 0.78 0.79 0.82 0.93 1.03 1.22 1.35 1.33 1.33 1.23 1.15 1.20 1.35 1.50 1.64 1.66 1.74 1.77 1.70 1.71 1.69 1.76 1.73 1.66 1.74
1.11 1.21 1.25 1.16 0.88 0.91 0.94 0.81 0.78 0.83 0.85 0.78 0.68 0.57 0.55 0.58 0.56 0.54 0.57 0.63 0.66 0.70 0.72 0.72 0.71 0.77 0.80 0.83 0.97 1.20 1.48 1.60 1.69 1.59 1.39 1.34 1.48 1.77 2.02 1.97 2.05 2.13 2.08 2.05 2.04 2.28 2.24 1.98 1.79
1.06 1.27 1.24 1.11 0.79 0.75 0.79 0.70 0.64 0.67 0.73 0.64 0.60 0.57 0.51 0.52 0.47 0.44 0.47 0.52 0.55 0.58 0.64 0.68 0.68 0.74 0.76 0.79 0.97 1.15 1.32 1.34 1.49 1.59 1.55 1.47 1.46 1.64 1.81 2.09 2.23 2.21 2.35 2.47 2.44 2.82 2.97 2.47 2.03
1.04 1.07 1.04 1.02 0.83 0.73 0.72 0.79 0.62 0.56 0.60 0.54 0.48 0.50 0.46 0.47 0.48 0.46 0.44 0.48 0.50 0.49 0.49 0.53 0.57 0.65 0.75 0.86 1.07 1.31 1.55 1.64 1.64 1.54 1.61 1.62 1.53 1.59 1.73 1.88 2.03 2.08 2.23 2.42 2.54 2.87 3.43 3.19 2.52
0.97 0.71 0.65 0.72 0.94 1.01 0.83 1.06 0.73 0.61 0.65 0.57 0.47 0.43 0.40 0.43 0.46 0.55 0.51 0.50 0.47 0.47 0.48 0.51 0.60 0.73 0.91 1.09 1.30 1.54 1.74 1.79 1.66 1.65 1.67 1.56 1.48 1.46 1.59 1.73 1.84 1.96 2.02 2.20 2.30 2.44 3.03 3.46 3.12
0.65 0.55 0.54 0.63 0.84 0.84 0.64 0.79 0.71 0.59 0.72 0.65 0.53 0.46 0.41 0.40 0.44 0.48 0.49 0.52 0.54 0.56 0.63 0.68 0.83 1.03 1.27 1.46 1.71 2.00 1.97 1.85 1.75 1.69 1.65 1.60 1.59 1.55 1.55 1.73 1.78 1.79 1.88 2.02 2.36 2.63 2.94 3.20 3.24
0.47 0.56 0.64 0.72 0.92 0.91 0.56 0.66 0.73 0.56 0.59 0.65 0.59 0.50 0.42 0.37 0.45 0.55 0.63 0.74 0.82 0.87 1.04 1.24 1.45 1.58 1.66 1.77 1.90 2.01 1.98 1.98 1.92 1.72 1.62 1.59 1.65 1.71 1.71 1.76 1.78 1.75 1.80 1.93 2.18 2.50 2.73 3.06 3.31
0.49 0.85 1.23 1.27 1.23 0.88 0.45 0.65 0.72 0.53 0.45 0.51 0.53 0.43 0.38 0.39 0.50 0.66 0.85 0.99 1.14 1.31 1.48 1.61 1.75 1.89 1.82 1.78 1.82 1.86 1.85 1.82 1.82 1.74 1.66 1.59 1.58 1.64 1.67 1.73 1.85 1.91 1.96 2.09 2.28 2.45 2.40 2.59 3.02
0.53 0.79 1.28 1.42 1.17 0.81 0.59 0.85 0.79 0.57 0.44 0.40 0.33 0.30 0.40 0.55 0.68 0.80 0.89 1.03 1.21 1.42 1.52 1.53 1.60 1.72 1.70 1.65 1.63 1.61 1.65 1.65 1.60 1.52 1.49 1.53 1.62 1.60 1.54 1.57 1.66 1.77 1.95 2.02 2.10 2.16 2.13 2.23 2.48
0.52 0.58 0.64 0.92 0.78 0.76 0.78 0.91 0.81 0.54 0.46 0.41 0.36 0.38 0.54 0.75 0.95 1.11 1.24 1.37 1.43 1.50 1.60 1.50 1.50 1.56 1.57 1.52 1.47 1.50 1.49 1.54 1.53 1.44 1.44 1.43 1.43 1.35 1.25 1.26 1.32 1.39 1.47 1.57 1.73 1.84 1.94 2.01 2.13
0.42 0.55 0.75 1.10 1.24 1.21 1.06 1.05 0.95 0.71 0.61 0.63 0.70 0.78 0.83 0.93 1.19 1.50 1.78 1.96 1.80 1.57 1.51 1.49 1.42 1.43 1.53 1.54 1.48 1.46 1.54 1.54 1.50 1.48 1.42 1.39 1.40 1.31 1.21 1.16 1.11 1.10 1.07 1.12 1.32 1.51 1.62 1.72 1.88
0.43 0.60 0.78 1.03 1.15 1.45 1.62 1.51 1.14 1.13 1.12 1.16 1.24 1.27 1.28 1.37 1.35 1.52 1.75 1.95 1.88 1.58 1.34 1.38 1.45 1.47 1.49 1.49 1.49 1.47 1.46 1.37 1.34 1.36 1.33 1.30 1.30 1.34 1.30 1.20 1.13 1.21 1.19 1.15 1.22 1.26 1.32 1.39 1.54
0.53 0.68 0.89 1.28 1.20 1.18 1.48 1.53 1.18 1.17 1.20 1.28 1.43 1.47 1.47 1.38 1.28 1.28 1.34 1.41 1.50 1.40 1.20 1.15 1.30 1.42 1.42 1.40 1.43 1.41 1.30 1.22 1.21 1.20 1.12 1.00 0.94 0.94 1.05 1.18 1.10 1.07 1.09 1.11 1.18 1.19 1.24 1.28 1.38